Theta_e
302 300 298 296 295 296 296 297 297 296 295 295 295 295 295 295 295 295 295 295 295 294 295 297 299 300 300 299 298 298 299 299 300 299 299 298 295 292 291 291 291 292 293 293 291 291 290 290 291 290 291 291
298 296 295 295 295 296 296 296 295 295 295 295 294 294 294 294 294 294 294 293 293 293 293 293 295 297 297 295 293 293 295 296 297 297 297 295 292 290 290 290 290 290 291 291 290 290 290 290 290 290 290 290
296 294 294 295 295 295 295 295 295 295 294 294 294 294 294 294 294 293 293 293 292 292 292 292 291 292 293 291 291 291 291 292 292 293 292 291 290 290 290 290 290 290 290 290 290 290 290 290 290 290 290 290
295 294 295 296 296 295 295 295 295 294 294 294 294 293 293 293 293 292 292 292 292 291 291 291 291 290 290 290 290 291 291 291 291 290 290 290 290 290 290 291 290 290 290 290 290 290 290 290 289 289 289 289
295 295 295 295 295 295 295 295 294 294 294 294 293 293 293 292 292 292 291 291 291 291 290 290 290 290 290 290 290 290 290 290 290 290 290 290 290 290 291 291 291 291 291 291 290 290 290 290 290 289 289 289
295 295 295 295 295 295 295 294 294 294 294 293 293 293 292 292 292 291 291 290 290 290 290 290 290 290 290 290 290 290 290 290 290 290 290 290 291 291 291 291 291 292 292 292 292 292 292 291 290 290 289 289
295 295 295 295 294 294 294 293 293 293 293 292 292 292 291 291 291 290 290 290 290 290 290 290 290 290 291 291 291 291 291 291 291 291 290 290 290 291 291 291 291 291 291 291 292 292 291 291 291 291 290 289
295 295 295 294 294 294 293 293 292 292 292 291 291 291 290 290 290 290 290 290 290 290 290 290 290 291 291 291 291 291 291 291 291 291 291 290 290 290 290 290 289 289 289 290 290 291 290 290 291 291 290 290
295 295 294 294 293 293 292 292 292 291 291 291 290 290 290 290 289 289 289 289 290 290 290 290 290 290 290 290 290 290 290 290 290 290 289 290 289 289 289 289 288 288 288 288 288 288 289 289 289 290 290 290
295 294 293 293 292 292 292 291 291 291 290 290 290 289 289 289 289 289 289 289 289 290 290 290 290 289 289 289 289 289 288 288 288 288 287 287 287 287 287 287 287 287 286 286 286 286 287 287 288 288 288 289
294 293 293 292 292 291 291 290 290 290 289 289 289 289 289 289 289 289 289 289 289 289 289 289 288 288 288 287 287 287 286 286 286 286 285 285 285 285 284 284 284 284 284 285 285 285 285 285 286 286 286 287
293 293 292 292 291 291 290 290 289 289 289 289 288 288 288 288 288 288 288 288 288 288 287 287 286 286 285 285 285 284 284 284 284 284 283 283 283 283 283 282 282 282 282 283 283 283 283 283 284 284 285 285
292 292 291 291 290 290 290 289 289 289 288 288 288 288 288 288 288 287 286 286 286 285 285 285 284 284 283 283 283 282 282 282 282 281 281 281 281 281 281 281 281 281 281 281 281 281 282 282 282 283 283 284
291 291 290 290 290 289 289 289 288 288 288 288 288 288 288 287 286 285 285 284 284 283 283 283 283 282 282 282 281 281 281 280 280 280 280 280 280 280 280 280 280 280 280 280 280 280 281 281 281 281 281 282
291 290 290 290 289 289 288 288 288 288 288 288 287 287 286 285 284 284 283 283 282 282 282 281 281 281 280 280 280 280 280 279 279 279 279 279 279 279 279 279 279 279 279 279 279 280 280 280 280 280 281 281
290 290 289 289 289 288 288 288 288 288 287 286 286 285 284 284 283 283 282 282 281 281 280 280 280 279 279 279 278 279 279 279 278 278 278 278 278 278 278 278 278 278 279 279 279 279 279 279 279 280 280 280
289 289 289 288 288 288 288 288 287 286 285 285 284 283 283 282 282 282 281 281 280 279 279 279 278 278 278 278 278 278 278 278 277 277 277 277 278 278 278 278 278 278 278 278 278 278 278 278 279 279 279 280
288 288 288 288 288 288 288 287 286 285 284 283 283 282 282 282 281 281 280 279 279 278 278 277 277 277 277 277 277 276 276 276 276 276 277 277 277 277 277 277 277 277 278 278 278 278 278 278 278 278 279 279
288 288 288 288 288 287 286 285 284 283 283 283 282 282 281 281 280 280 279 279 278 277 277 277 277 276 276 276 276 275 275 275 275 276 276 276 276 276 276 277 277 277 277 277 277 277 277 278 278 278 279 279
288 288 288 287 287 286 285 284 283 283 283 282 282 281 281 281 280 279 279 278 278 277 276 276 276 276 275 275 275 275 275 275 275 275 275 275 275 275 276 276 276 276 276 276 276 277 277 277 278 278 278 279
287 287 287 286 285 284 284 283 283 283 283 282 282 281 281 280 280 279 278 278 277 277 276 276 275 275 275 275 274 274 274 274 275 274 274 274 274 274 275 276 276 276 276 276 275 276 276 277 277 278 279 279
287 287 286 285 284 283 283 283 283 283 282 282 282 281 281 280 280 279 278 278 277 276 276 275 275 275 274 274 274 274 274 274 274 274 273 274 274 274 274 275 275 275 275 275 275 276 276 277 277 278 279 279
286 285 284 284 283 283 283 283 283 283 282 282 282 281 281 281 280 279 279 278 277 276 276 275 275 274 274 274 274 274 274 274 274 273 273 273 274 274 274 274 274 274 274 275 275 276 277 277 277 278 279 279
285 284 283 282 282 282 282 283 283 283 283 282 282 282 281 281 280 279 279 278 277 276 276 275 275 274 274 274 273 274 274 274 273 273 273 273 273 274 274 274 274 274 274 275 276 277 277 277 278 278 279 279
284 283 283 282 282 282 282 282 282 282 282 282 282 281 281 280 280 279 278 278 277 276 276 275 274 274 274 273 273 273 273 273 272 272 272 272 273 273 274 274 274 274 273 275 276 277 277 278 279 279 280 280
284 284 283 283 283 283 282 282 282 281 282 282 281 281 280 280 279 279 278 277 276 276 275 275 274 274 273 273 273 273 273 272 272 272 272 272 272 273 273 273 274 273 273 275 276 276 277 278 280 280 280 279
284 284 284 284 284 283 282 282 282 281 281 282 281 281 280 280 279 279 278 277 276 276 275 275 274 274 273 273 273 273 273 272 272 272 271 271 272 273 273 273 273 272 273 274 275 276 277 278 279 279 280 279
284 284 283 284 284 283 282 282 282 281 281 281 281 281 280 280 280 279 278 277 277 276 276 275 275 274 273 273 272 272 273 272 272 272 271 271 271 272 272 273 273 272 272 272 274 275 276 277 277 278 280 279
284 284 283 283 283 282 281 281 281 280 280 280 280 280 280 280 280 279 278 277 277 276 276 276 275 275 274 274 273 272 272 272 272 271 271 271 271 271 271 272 273 272 272 272 272 273 274 276 276 277 278 276
284 284 283 282 282 281 281 281 280 281 281 280 280 280 280 280 279 278 278 277 277 276 276 275 275 275 274 274 273 272 272 272 271 271 271 270 271 271 271 271 272 272 272 271 271 272 273 274 274 275 275 274
284 283 283 282 282 282 282 282 282 282 282 281 281 281 280 279 278 278 277 277 276 276 276 275 275 275 274 274 273 272 272 272 271 271 270 270 270 270 270 271 271 271 272 272 271 271 271 272 272 272 272 273
Wind_Speed
13 11 9 8 8 9 10 10 9 8 8 7 6 6 6 6 7 7 8 10 9 9 10 12 14 15 15 15 15 16 16 16 16 16 16 15 15 15 16 16 16 15 15 16 16 18 19 20 20 21 19 16
10 8 8 7 7 8 8 8 7 7 7 7 7 6 6 6 6 7 7 8 8 9 9 9 11 13 14 14 14 14 14 14 15 15 15 15 16 18 18 18 18 17 17 17 18 19 20 20 21 21 20 18
8 7 6 6 7 7 6 7 7 7 7 8 7 7 7 7 6 7 8 8 9 9 9 10 10 11 12 12 13 13 13 13 13 14 15 16 18 19 19 19 20 20 19 20 20 20 21 21 21 22 21 20
8 7 6 6 6 6 6 6 6 7 7 7 7 7 7 6 7 7 8 8 9 9 10 10 10 10 11 12 13 13 13 13 14 14 15 17 18 19 19 20 20 20 21 21 22 22 22 22 22 22 22 21
8 8 7 6 6 6 6 6 6 6 6 6 6 6 6 6 7 8 8 9 9 10 10 10 11 11 12 13 14 14 14 14 14 15 15 16 17 18 19 19 20 20 20 21 22 23 23 24 23 23 23 22
9 8 7 6 6 6 5 5 5 4 4 5 5 5 6 7 8 8 9 9 10 10 11 11 12 12 13 14 14 15 15 15 15 15 16 17 17 18 19 19 19 20 20 21 22 23 24 24 24 24 25 23
9 8 7 7 6 6 5 4 4 4 4 4 4 4 5 6 7 8 8 9 9 10 11 12 12 13 14 14 15 16 16 17 16 17 17 18 18 19 20 20 20 21 21 21 22 23 24 24 25 25 25 24
9 9 8 7 7 6 5 4 3 3 3 3 3 4 5 5 6 7 8 9 10 10 12 13 13 14 15 16 17 17 18 19 19 20 20 20 21 21 22 22 22 22 22 22 22 22 23 23 24 25 25 25
9 9 8 7 7 6 5 4 3 2 2 2 3 4 5 5 6 7 8 9 10 11 12 13 15 16 17 18 19 20 20 21 22 22 22 23 22 22 22 22 22 23 23 23 23 22 22 22 23 24 24 25
9 9 9 8 7 6 4 3 2 1 1 2 3 4 5 6 7 8 9 10 11 13 14 15 16 17 18 19 20 21 21 21 22 23 23 23 23 23 23 23 22 22 23 23 23 23 23 23 22 22 23 24
10 9 8 7 6 5 4 3 1 0 1 2 4 5 6 7 8 9 10 12 13 14 15 16 17 18 18 19 20 20 20 21 22 22 22 23 23 23 23 23 23 23 23 23 23 23 23 23 23 23 23 23
9 9 8 6 5 4 3 2 1 2 3 4 5 6 7 8 9 10 12 13 14 15 16 17 17 18 18 19 20 20 20 20 21 21 22 22 23 23 23 23 23 23 23 23 22 23 23 23 24 23 23 24
9 8 7 6 5 4 3 2 2 3 4 5 6 7 8 9 10 11 12 13 14 14 15 16 17 17 18 18 19 19 19 20 20 20 21 22 22 22 23 22 22 23 22 22 22 23 24 24 24 23 24 24
9 8 7 6 5 4 3 3 3 3 4 5 6 8 9 10 10 11 11 13 13 14 15 15 15 16 16 16 17 17 18 18 19 19 19 21 21 21 21 20 21 23 22 22 22 22 24 25 24 23 23 24
9 8 7 7 6 5 4 4 4 4 5 6 7 8 10 10 11 11 12 12 13 13 13 13 14 14 14 14 15 16 17 17 18 18 18 20 20 20 19 19 20 21 21 20 20 23 25 25 24 24 23 24
10 9 9 8 7 6 5 5 5 5 6 7 8 9 10 10 11 11 12 12 12 12 11 12 12 13 13 13 14 15 16 17 17 17 18 19 20 19 18 18 19 19 19 18 19 22 25 25 25 25 24 25
11 10 9 8 7 6 6 5 5 5 6 6 7 8 9 10 10 10 11 11 12 11 10 11 12 11 12 13 14 15 16 16 16 17 17 18 18 18 18 17 18 18 17 16 19 22 24 24 25 24 25 25
12 11 10 9 8 7 6 6 5 5 5 5 6 7 8 8 9 9 10 10 10 10 9 9 10 11 11 12 14 14 15 15 14 15 16 16 17 17 17 16 17 17 17 17 20 22 22 23 23 24 25 24
12 11 10 10 9 8 7 6 6 5 5 5 5 5 7 7 8 9 9 9 9 9 8 7 8 9 10 12 12 12 14 14 12 14 14 14 15 15 15 14 16 16 15 17 20 22 22 22 23 23 22 21
14 12 12 11 10 9 8 7 6 5 5 4 4 4 5 6 7 8 9 9 8 8 7 7 6 8 10 11 10 10 11 11 10 12 13 13 13 13 13 12 13 13 13 16 20 21 21 22 22 21 19 17
15 14 13 12 11 10 9 8 7 6 5 4 3 3 4 5 7 7 8 8 8 7 7 7 6 8 10 11 9 9 9 8 8 10 12 11 11 12 12 10 10 12 12 14 19 20 20 20 20 19 16 14
16 15 14 13 12 11 10 9 8 7 5 4 4 3 4 5 6 7 7 8 7 7 7 7 7 8 10 9 7 7 7 6 7 9 10 10 10 11 11 10 10 11 12 15 19 19 17 17 17 16 13 12
17 16 16 15 14 13 12 11 10 8 7 6 5 5 5 4 5 5 6 6 6 6 6 7 7 8 9 8 6 6 6 5 6 8 10 10 10 10 10 10 9 11 13 14 17 16 14 15 16 13 10 9
20 19 18 16 15 14 14 13 12 11 10 9 8 7 6 4 4 4 4 5 5 5 5 5 6 7 8 8 6 5 5 6 7 9 10 10 11 10 9 9 7 10 14 14 14 12 12 14 14 10 7 5
23 22 19 18 17 15 14 15 14 13 13 11 11 10 8 6 5 4 4 4 3 3 4 4 4 6 6 6 5 5 6 8 10 11 12 11 10 9 9 9 7 10 13 12 11 11 12 12 10 6 4 3
26 24 22 19 17 16 15 16 16 14 15 14 13 12 10 8 7 5 5 4 3 3 3 2 2 3 5 5 5 5 7 8 9 9 10 10 8 8 8 8 7 10 12 9 11 13 12 10 6 4 4 4
28 25 24 21 18 17 16 17 17 16 16 16 15 13 12 10 9 7 6 5 4 3 2 2 2 2 4 5 5 5 4 5 6 6 7 7 7 8 8 7 6 7 8 8 11 11 8 7 7 6 5 3
30 27 27 25 22 20 18 18 19 19 19 18 17 16 15 13 12 9 8 7 6 4 3 3 2 3 4 5 6 5 3 4 4 5 5 6 6 7 8 8 6 5 5 6 8 7 6 7 6 6 4 6
32 31 29 27 24 22 20 19 19 19 20 21 20 19 18 17 14 12 11 9 8 6 5 4 3 4 4 6 6 5 4 4 5 5 5 5 6 6 7 8 8 6 4 3 4 4 6 6 5 4 7 11
35 34 32 29 26 22 20 19 19 23 24 24 24 22 20 19 17 15 13 11 10 8 7 5 5 4 5 5 5 4 4 5 5 5 6 5 6 6 6 7 8 7 5 4 3 4 5 5 6 8 9 9
37 36 34 32 30 26 23 21 22 25 26 23 23 23 21 20 19 17 16 14 12 10 9 7 6 6 5 5 5 5 5 6 6 6 6 6 6 7 7 7 8 8 6 6 5 4 5 7 9 9 9 7
Wind_Direction
105 103 98 94 90 89 90 90 87 84 82 75 70 62 54 50 48 50 50 50 50 50 51 50 44 38 34 32 30 30 30 29 27 26 23 19 9 1 0 360 0 3 4 1 356 355 355 357 359 2 8 15
112 109 105 103 99 95 92 88 82 76 74 72 68 62 55 45 38 36 36 37 36 36 34 36 37 34 29 22 18 19 21 21 21 19 14 4 354 352 353 352 352 353 352 350 348 349 350 351 353 354 359 5
122 121 115 108 102 97 92 86 77 71 66 66 65 61 55 46 40 34 32 30 27 27 23 21 22 21 16 8 7 7 6 5 4 2 357 349 347 349 350 349 348 347 345 344 344 345 347 348 349 350 354 356
128 126 120 109 102 100 97 90 78 70 62 61 59 56 51 43 38 31 29 24 21 19 16 14 12 9 3 0 0 359 358 356 354 350 347 345 345 345 346 347 346 344 342 342 343 344 345 346 348 348 350 351
131 128 122 113 109 107 99 91 81 72 63 58 51 46 38 31 28 26 23 16 15 11 8 8 5 2 358 357 356 356 356 354 352 349 346 345 344 344 344 344 344 343 342 342 342 343 344 346 348 346 348 348
133 131 127 121 119 115 105 99 89 77 66 57 44 36 24 19 17 14 12 9 8 4 3 2 360 358 355 353 352 353 354 352 352 350 348 346 344 343 342 342 342 342 342 342 341 342 343 344 345 344 345 346
137 135 133 129 126 121 116 110 97 83 68 58 42 30 18 14 10 6 3 359 357 356 354 352 351 351 348 347 347 348 347 347 347 347 347 346 344 343 343 343 343 343 342 341 340 340 341 340 340 340 341 342
143 143 141 138 135 129 126 118 104 89 69 53 34 20 14 8 2 358 355 351 349 349 348 345 343 342 341 341 340 341 341 341 342 342 342 342 343 343 343 344 343 343 342 340 340 339 338 337 335 335 336 336
152 150 148 145 142 138 136 127 113 94 60 30 14 6 3 357 352 351 348 346 345 344 343 341 341 340 340 340 339 339 340 340 340 341 341 340 341 341 342 342 341 341 340 339 339 338 336 334 333 332 332 331
158 155 154 152 150 150 150 144 136 111 34 360 355 353 353 351 348 347 344 342 341 340 339 338 339 338 338 339 339 339 340 340 340 341 341 341 341 341 341 340 339 339 338 338 336 336 335 333 332 330 329 327
163 161 162 162 160 160 162 157 153 127 343 343 344 345 348 349 347 345 342 340 338 337 337 337 337 337 337 338 338 339 339 339 339 340 340 340 341 341 341 340 340 339 338 337 336 336 334 333 332 330 328 326
169 168 169 168 170 174 180 180 254 311 331 336 339 341 341 344 344 344 341 339 338 337 336 336 337 337 338 338 338 339 339 339 340 341 339 340 340 340 341 341 340 339 339 338 337 336 335 333 332 330 327 325
175 175 176 177 182 196 212 238 276 303 322 329 330 331 333 337 339 340 339 338 338 338 336 336 337 337 338 338 338 340 341 340 342 343 342 341 342 341 341 341 339 339 339 338 337 336 335 335 333 331 329 326
182 183 187 192 202 214 228 251 277 300 313 319 322 324 327 330 334 337 337 336 337 336 336 335 336 336 336 337 336 338 340 340 342 344 343 343 344 343 343 342 339 340 340 338 337 336 336 336 334 333 330 328
193 196 202 208 217 224 238 258 281 299 308 314 317 321 326 330 334 335 335 335 336 336 336 335 335 336 337 338 337 339 340 340 343 345 345 344 345 346 344 342 341 341 341 339 338 337 337 337 336 334 332 329
203 207 212 216 222 230 244 260 278 291 300 309 313 319 325 330 333 334 334 334 336 337 337 337 338 339 339 341 341 340 342 344 346 347 347 345 346 347 346 343 342 342 341 339 337 337 338 338 337 335 333 332
209 212 215 217 225 234 244 256 269 282 292 301 309 319 325 329 333 336 337 337 341 343 341 340 342 343 343 341 343 343 344 347 348 347 347 346 346 346 345 343 342 342 340 337 336 336 337 337 337 335 334 334
213 214 218 222 228 236 243 252 260 270 283 297 309 319 326 333 338 340 342 343 346 348 347 345 344 345 343 340 344 345 345 348 348 347 347 347 346 345 345 343 341 341 338 335 335 335 335 335 334 332 333 333
217 219 223 225 230 236 240 243 249 259 272 290 305 317 328 336 342 343 346 348 349 350 349 348 345 342 339 340 346 345 344 349 348 345 347 347 346 346 344 340 339 339 335 333 334 335 334 333 332 332 331 328
219 221 224 226 230 234 234 235 241 253 263 278 297 314 329 337 345 347 347 349 349 349 347 346 341 335 334 340 346 342 343 349 345 342 346 347 345 344 341 337 336 335 331 329 331 333 332 331 331 330 326 321
221 223 224 227 229 230 230 232 238 246 254 266 288 306 322 335 343 346 347 348 349 347 343 341 335 328 333 341 344 341 344 345 340 341 344 344 341 340 338 333 330 331 328 325 328 330 329 329 330 327 320 314
222 223 224 225 227 227 227 230 235 240 247 257 272 290 308 328 337 341 346 345 347 345 337 336 334 328 333 341 342 340 341 337 337 340 341 340 337 336 335 330 327 328 325 322 325 325 322 323 324 319 310 308
221 220 221 222 221 221 224 229 234 237 241 246 254 265 282 303 318 327 336 338 340 338 333 332 331 328 334 340 339 337 338 336 334 335 338 338 334 333 330 326 323 325 325 320 317 314 310 315 317 313 301 301
216 215 216 215 215 217 223 229 232 234 235 236 241 246 253 262 278 296 310 322 328 328 328 326 324 326 332 337 335 334 333 329 328 330 334 334 332 331 328 326 321 325 328 318 310 306 304 306 306 300 288 283
214 213 212 210 212 214 218 225 228 229 230 230 234 237 239 243 252 264 279 297 307 316 325 318 318 323 328 333 330 325 323 323 326 329 333 334 330 325 325 327 324 332 332 320 316 319 313 308 295 273 252 249
218 218 216 214 215 215 215 222 223 223 229 231 233 236 237 239 246 253 260 273 278 292 311 307 303 307 318 326 320 318 319 322 327 327 329 333 328 319 317 316 318 336 340 329 325 322 314 316 307 261 228 239
221 221 221 220 220 220 219 224 223 221 228 232 233 236 238 239 243 247 248 255 261 271 288 300 295 287 310 321 317 317 308 306 315 316 320 325 323 317 313 307 306 334 344 332 323 317 307 317 322 294 251 227
222 222 224 224 226 226 222 224 227 227 230 233 232 234 236 237 238 239 240 244 248 255 267 286 301 297 308 316 317 315 291 283 291 296 306 309 309 311 313 311 304 318 334 334 329 322 309 306 301 292 295 320
224 223 225 225 226 225 223 224 224 222 225 227 228 230 233 235 234 233 234 236 235 240 248 262 285 297 305 313 317 312 288 280 281 284 293 298 297 297 304 307 304 305 303 314 325 310 305 304 287 291 326 325
225 224 223 221 218 216 215 215 216 221 224 225 227 229 230 231 230 228 229 230 230 231 236 249 268 282 296 304 304 290 273 271 274 276 280 285 289 288 293 296 298 302 294 287 285 263 267 279 281 293 311 314
225 224 223 221 220 217 215 215 220 227 228 226 227 227 225 225 226 226 226 227 227 228 231 240 253 265 278 283 280 274 261 258 262 264 269 275 279 282 286 285 288 296 297 289 278 254 253 263 267 275 284 286